Location: Unspecified
(0.0000°N, 0.0000°E)
Time: 14:28:06
(UTC+00:00)

AAUSAT3 - Pass Details

Date: 06 August 2024
Orbit: 756 x 773 km, 98.4° (Epoch: 17 September)

Event Time Altitude Azimuth Distance (km) Brightness Sun altitude
Rises 05:26:01 0° 148° (SSE) 3,239 ? -9.6°
Reaches altitude 10° 05:28:37 10° 136° (SE) 2,307 ? -8.9°
Maximum altitude 05:32:57 28° 78° (ENE) 1,392 ? -7.9°
Drops below altitude 10° 05:37:14 10° 19° (NNE) 2,289 ? -6.9°
Sets 05:39:47 0° 8° (N) 3,208 ? -6.3°
